Regional Weather Roundup
Issued by NWS Jackson, KY

Home | Current Version | Previous Version | Text Only | Print | Product List | Glossary On
Versions: 1 2 3 4 5 6 7 8 9 10 11 12 13 14 15 16 17 18 19 20 21 22 23 24 25 26 27 28 29 30 31 32 33 34 35 36 37 38 39 40 41 42 43 44 45 46 47 48 49 50
000
ASUS43 KJKL 210019
RWRJKL

EAST KENTUCKY HOURLY WEATHER ROUNDUP
NATIONAL WEATHER SERVICE JACKSON KY
700 PM EST SAT DEC 20 2014

NOTE: "FAIR" INDICATES FEW OR NO CLOUDS BELOW 12,000 FEET WITH
NO SIGNIFICANT WEATHER AND/OR OBSTRUCTIONS TO VISIBILITY.

* THESE REPORTS ARE NOT UNDER NWS QUALITY CONTROL AND MAY NOT
  REPORT WEATHER SUCH AS PRECIPITATION AND FOG.

KYZ079-080-083-085-087-088-110-112-115-119-120-210100
...EASTERN KENTUCKY...

CITY           SKY/WX    TMP DP  RH WIND       PRES   REMARKS
JACKSON        CLOUDY    34  25  69 NE3       30.23R
6HR MIN TEMP:  34; 6HR MAX TEMP:  38;

LONDON         CLEAR     36  25  64 NW3       30.24R
6HR MIN TEMP:  36; 6HR MAX TEMP:  41;

SOMERSET*      CLEAR     32  27  80 CALM      30.27R
MONTICELLO*    CLEAR     26  23  88 CALM      30.28R
6HR MIN TEMP:  26; 6HR MAX TEMP:  42;

MIDDLESBORO*   CLOUDY    40  30  66 CALM      30.24R
6HR MIN TEMP:  40; 6HR MAX TEMP:  44;

HARLAN APT*    CLOUDY    39  28  65 CALM      30.22R
HAZARD APT*    CLOUDY    37  27  65 CALM      30.24R
BLACK MTN*       N/A     30  28  93 CALM        N/A
PIKEVILLE APT* CLOUDY    34  27  75 N7        30.23R WCI  28
BIG SANDY*     CLOUDY    34  27  76 NE3       30.24S
6HR MIN TEMP:  34; 6HR MAX TEMP:  37;

MOREHEAD APT*  CLOUDY    32  27  80 CALM      30.29R
ASHLAND*       PTCLDY    34  25  69 CALM      30.27R
$$

KYZ035-036-041-042-044-050-067-078-099-210100
...CENTRAL KENTUCKY...

CITY           SKY/WX    TMP DP  RH WIND       PRES   REMARKS
MT STERLING*   CLOUDY    32  28  86 NE3       30.28R
FLEMING/MASON* CLOUDY    30  27  86 CALM      30.29S
DANVILLE*      CLEAR     30  27  86 CALM      30.28R
RICHMOND*      CLEAR     30  25  80 CALM      30.26R
LEXINGTON      CLOUDY    33  26  75 NE6       30.27R WCI  28
6HR MIN TEMP:  33; 6HR MAX TEMP:  36;

FRANKFORT      CLOUDY    33  25  72 N5        30.27R WCI  29
6HR MIN TEMP:  33; 6HR MAX TEMP:  36;

$$

KYZ091>093-OHZ055-061-077-WVZ005-015-034-035-042-210100
...SOUTHERN OHIO/WEST VIRGINIA...

CITY           SKY/WX    TMP DP  RH WIND       PRES   REMARKS
COVINGTON      CLOUDY    32  24  72 N5        30.28S WCI  27
COLUMBUS       CLOUDY    30  23  75 CALM      30.28R
DAYTON         CLOUDY    31  24  75 CALM      30.28S
WILMINGTON     CLOUDY    30  23  75 CALM      30.27S
HUNTINGTON     CLOUDY    33  25  72 CALM      30.27R
CHARLESTON     CLOUDY    34  24  67 NW3       30.26R
PINEVILLE*     CLOUDY    36  34  94 MISG      30.26R
BECKLEY        CLOUDY    33  26  75 CALM      30.18R
BLUEFIELD      CLOUDY    35  31  85 W3        30.17S FOG
$$

VAZ002-007-008-TNZ017-027-036-066-071-210100
...SOUTHWEST VIRGINIA/EAST TENNESSEE...

CITY           SKY/WX    TMP DP  RH WIND       PRES   REMARKS
WISE*          CLOUDY    36  30  80 CALM      30.18R
JONESVILLE*    CLOUDY    41  30  65 CALM      30.23S
ABINGDON*      CLOUDY    40  39  97 CALM      30.19R FOG
BRISTOL        CLOUDY    42  37  82 W3        30.21R
KNOXVILLE      CLOUDY    42  35  76 E5        30.22S
OAK RIDGE      CLOUDY    43  33  68 CALM      30.24R
CROSSVILLE     PTCLDY    39  26  59 N3        30.20R
NASHVILLE      MOCLDY    39  29  67 N7        30.26R WCI  34
$$

...KEY TO REMARKS...
VSB - VISIBILITY IN MILES
WCI - WIND CHILL INDEX
HX  - HEAT INDEX

$$


USA.gov is the U.S. government's official web portal to all federal, state and local government web resources and services.